Flag for U.S.A. Weather past 2 weeks in Hopkinsville, Kentucky, U.S.A.

Now
88 °F

Sunny.


Feels Like: 96 °F
Forecast: 73 / 94 °F
Wind: 12 mph from West

Location: Fort Campbell U. S. Army Airfield

Current Time: Aug 21, 2014 at 11:54:02 AM

Latest Report: Aug 21, 2014 at 10:58 AM


Visibility: 9 mi

Pressure: 30.11 "Hg

Humidity: 65%

Dew point: 74 °F

Location of HopkinsvilleLocation

Historic Weather in Hopkinsville — Graph

°F

Hopkinsville temperature yesterday

Maximum temperature yesterday: 93 °F (at 2:58 PM)
Minimum temperature yesterday: 72 °F (at 8:04 PM)
Average temperature yesterday: 78 °F

Past Weeks' High & Low Weather Summary

 TemperatureHumidityPressure
High94 °F (Aug 6, 1:58 PM)100% (Aug 7, 5:58 PM)30.11 "Hg (Aug 7, 5:58 PM)
Low57 °F (Aug 13, 5:58 AM)35% (Aug 6, 1:58 PM)29.81 "Hg (Aug 18, 4:58 PM)
Average77 °F79%29.95 "Hg
* Reported Aug 6 9:58 AM — Aug 21 9:58 AM, Hopkinsville, Weather by CustomWeather, © 2014

Note: Actual official high and low records may vary slightly from our data, if they occured in-between our weather recording intervals... More about our weather records

Advertising

Hopkinsville weather history for previous 24 hours

 ConditionsComfort  
Time TempWeatherWind HumidityBarometerVisibility
9:58 AM
Aug 21
85 °FSunny.15 mph73%30.10 "Hg9 mi
8:58 AM81 °FSunny.12 mph86%30.09 "Hg10 mi
7:58 AM76 °FSunny.8 mph100%30.08 "Hg10 mi
6:58 AM71 °FClear.5 mph100%30.07 "Hg10 mi
5:58 AM71 °FClear.3 mph100%30.06 "Hg10 mi
4:58 AM71 °FClear.2 mph100%30.04 "Hg10 mi
3:58 AM71 °FClear.2 mph100%30.05 "Hg10 mi
2:58 AM71 °FClear.5 mph100%30.03 "Hg10 mi
1:58 AM71 °FClear.2 mph100%30.05 "Hg10 mi
12:58 AM71 °FClear.5 mph100%30.06 "Hg10 mi
11:58 PM
Aug 20
72 °FClear.2 mph100%30.05 "Hg10 mi
10:58 PM72 °FClear.5 mph100%30.05 "Hg10 mi
9:58 PM73 °FPassing clouds.5 mph100%30.05 "Hg10 mi
8:59 PM73 °FPartly cloudy.2 mph100%30.05 "Hg10 mi
8:58 PM74 °FPartly cloudy.No wind97%30.04 "Hg10 mi
8:49 PM73 °FThundershowers. Passing clouds.3 mph100%30.04 "Hg9 mi
8:04 PM72 °FThunderstorms. Fog.6 mph100%30.05 "Hg3 mi
7:58 PM72 °FStrong thunderstorms. Fog.1 mph100%30.05 "Hg2 mi
7:51 PM73 °FThunderstorms. Fog.6 mph100%30.06 "Hg4 mi
6:58 PM73 °FFog.10 mph100%30.01 "Hg6 mi
6:01 PM73 °FStrong thunderstorms. Cloudy.9 mph83%30.01 "Hg2 mi
5:58 PM76 °FStrong thunderstorms. Cloudy.13 mph80%29.99 "Hg2 mi
5:56 PM75 °FStrong thunderstorms. Mostly cloudy.13 mph83%30.00 "Hg2 mi
5:04 PM77 °FHeavy rain. More clouds than sun.41 mph65%29.97 "Hg1 mi
5:02 PM77 °FHeavy rain. More clouds than sun.40 mph65%29.96 "Hg1 mi
4:00 PM91 °FSunny.17 mph56%29.94 "Hg6 mi
2:58 PM93 °FSunny.13 mph49%29.95 "Hg10 mi
1:58 PM93 °FPassing clouds.10 mph54%29.96 "Hg10 mi
12:58 PM93 °FScattered clouds.9 mph54%29.97 "Hg10 mi
11:58 AM91 °FPassing clouds.12 mph58%29.98 "Hg10 mi
Weather by CustomWeather, © 2014

See weather overviewHow to use our weather pages